Location: Ingoldesthorpe
(52.8667°N, 0.5167°E)
Time: 15:28:18
(UTC+00:00)

USA 59 Rocket - Pass Details

Date: 19 May 2025
Orbit: 373 x 1696 km, 63.3° (Epoch: 17 June)

Event Time Altitude Azimuth Distance (km) Brightness Sun altitude
Exits shadow 22:10:00 15° 102° (ESE) 1,166 1.1 -13.7°
Drops below altitude 10° 22:11:11 10° 80° (E) 1,418 1.8 -13.8°
Sets 22:13:33 0° 59° (ENE) 2,245 3.0 -13.9°
